This is the latest recevied weather packets stored in our database for station/object SP5MRF. If no packets are shown the sender has not sent any weather packets the latest 1 day(s).
| Time | Temp. | Humidity | Pressure | Rain* | Wind** | Luminosity | Snow |
|---|---|---|---|---|---|---|---|
| 1778038916 | 11.67° C | 80% | 1001.5 hPa | 0 mm | - | - | - |
| 1778038437 | 11.67° C | 80% | 1001.5 hPa | 0 mm | - | - | - |
| 1778037956 | 11.11° C | 80% | 1001.5 hPa | 0 mm | - | - | - |
| 1778037476 | 11.11° C | 79% | 1001.6 hPa | 0 mm | - | - | - |
| 1778036996 | 11.67° C | 79% | 1001.6 hPa | 0 mm | - | - | - |
| 1778036516 | 11.67° C | 79% | 1001.8 hPa | 0 mm | - | - | - |
| 1778036036 | 11.67° C | 79% | 1001.8 hPa | 0 mm | - | - | - |
| 1778035556 | 11.67° C | 78% | 1001.6 hPa | 0 mm | - | - | - |
| 1778035076 | 11.67° C | 78% | 1001.4 hPa | 0 mm | - | - | - |
| 1778034596 | 11.67° C | 78% | 1001.8 hPa | 0 mm | - | - | - |
| 1778034116 | 11.67° C | 77% | 1001.9 hPa | 0 mm | - | - | - |
| 1778033636 | 11.67° C | 77% | 1001.9 hPa | 0 mm | - | - | - |
| 1778033156 | 12.22° C | 76% | 1001.8 hPa | 0 mm | - | - | - |
| 1778032676 | 12.22° C | 76% | 1001.9 hPa | 0 mm | - | - | - |
| 1778032196 | 12.22° C | 76% | 1002 hPa | 0 mm | - | - | - |
| 1778031716 | 12.78° C | 76% | 1002 hPa | 0 mm | - | - | - |
| 1778030756 | 12.78° C | 76% | 1002 hPa | 0 mm | - | - | - |
| 1778030276 | 13.33° C | 76% | 1001.9 hPa | 0 mm | - | - | - |
| 1778029796 | 13.33° C | 76% | 1001.8 hPa | 0 mm | - | - | - |
| 1778029316 | 13.89° C | 76% | 1001.9 hPa | 0 mm | - | - | - |
| 1778028836 | 13.89° C | 76% | 1001.9 hPa | 0 mm | - | - | - |
| 1778028356 | 13.89° C | 76% | 1001.8 hPa | 0 mm | - | - | - |
| 1778027876 | 13.89° C | 76% | 1001.7 hPa | 0 mm | - | - | - |
| 1778027396 | 14.44° C | 76% | 1001.6 hPa | 0 mm | - | - | - |
| 1778026438 | 14.44° C | 75% | 1001.4 hPa | 0 mm | - | - | - |
* Rain latest hour (hover to see other rain measurements)
** Current wind speed in m/s (hover to see current wind gust speed)